Location: Unspecified
(0.0000°N, 0.0000°E)
Time: 16:23:04
(UTC+00:00)

CZ-3C DEB - Pass Details

Date: 13 March 2026
Orbit: 640 x 36740 km, 20.7° (Epoch: 1 May)

Event Time Altitude Azimuth Distance (km) Brightness Sun altitude
Rises 11:33:09 0° 293° (WNW) 12,548 ? 80.5°
Reaches altitude 10° 11:40:54 10° 295° (WNW) 13,525 ? 82.3°
Maximum altitude 13:27:42 44° 290° (WNW) 29,006 ? 70.3°
Enters shadow 21:45:26 28° 204° (SSW) 3,362 ? -53.9°
